Flight Information

DEPARTURE
DENVER, CO
Elevation:
5884
Runways:
17R/35L - 7001x75 - ASPH-G
10/28 - 4800x75 - ASPH-G
17L/35R - 10001x100 - ASPH-G
Active PE Departure:
17L - 17R
Current PE ATIS:
U
Altimeter:
30.18
Remarks:
ATIS:
120.3 303-799-6722
Clearance Delivery:
128.6
Ground:
121.8
Tower:
CENTENNIAL TOWER 118.9
DESTINATION
,
Elevation:
TPA:
1000 (est.)


6083.4 NM80° True-11° Var69° HDG

Flight Plan:
(click to file on line)

1. Type
2. Aircraft Identification
3. Aircraft Type / Special Equipment
4. True Airspeed
kts
5. Departure Airport
(ICAO code)
6. Arriving Airport
(ICAO code)
7. Cruising Altitude
ft
8. Alternate Airport
(ICAO code)
9. Route of Flight
10. Remarks


00:00:00 Departure ATIS: Destination ATIS:

Clearance Limit:
Route:
Altitude: Expect in minutes
Frequency:
Transponder: (7500 Hijack / 7600 Lost Comms / 7700 Emergency)


KAPA 051653Z 16006KT 10SM FEW080 FEW140 FEW200 27/07 A3018 RMK AO2 SLP144 T02720067 $
Time: 2020-07-05T16:53:00Z
1593971161
Winds: 160 @ 6 kts
Visibility: 10.0 sm
Clouds (AGL): FEW 8000
FEW 14000
FEW 20000
Temperature: 27.2 C
Dew Point: 6.7 C
Pressure: 30.180119 in Hgbr


Notes:

Data extracted from FAA Digital Chart Supplement. Effective: 0901Z Thursday, May 21, 2020 to 0901Z Thursday, Jul 16, 2020
Current ATIS data is provided courtisy of PilotEdge.